Chelsea Heart and Sole
Skip Navigation Links
Results
Details
Mobile Results
10 May 2014
Send timing questions to rftiming@runningfit.com
Page 1 of 2 (57 items)
[1]2
Pos
Race No
Fav
Share
Print
Name
Gun Time
Net Time
Category
Cat Pos
Gender
Gen Pos
City
State
Pace
1763Doug Mckibben00:39:31.4FinishedOverall1Male1 MI 21.0 m/hr
2761Scott Thomas00:39:32.6Finished40-491Male2 MI 20.9 m/hr
3759Terry Draper00:39:33.1Finished40-492Male3ChelseaMI 20.9 m/hr
4738Curt Steenbeke00:40:20.3Finished40-493Male4MunithMI 20.5 m/hr
5705Mike Coffman00:43:02.3Finished40-494Male5StockbridgeMI 19.3 m/hr
6749Matt West00:43:11.7Finished30-391Male6YpsilanitMI 19.2 m/hr
7701Jd Alford00:46:47.4Finished30-393Male7ChelseaMI 17.7 m/hr
8742Bryan Andrews00:46:54.9Finished30-392Male8GregoryMI 17.7 m/hr
9725Jonathan Rodgers00:49:39.9Finished60-691Male9Ann ArborMI 16.7 m/hr
10765Barry Shellgrove00:50:11.6Finished50-591Male10 MI 16.5 m/hr
11702James Alford, Jr.00:50:21.6Finished60-692Male11ChelseaMI 16.5 m/hr
12708Nick Helmholdt00:50:26.0Finished30-394Male12ChelseaMI 16.4 m/hr
13728Mark Skiff00:51:49.8Finished40-495Male13Whitmore LakeMI 16.1 m/hr
14707Eric Helber00:51:52.9Finished50-592Male14Ann ArborMI 16.1 m/hr
15731Luke Wilson00:52:53.7Finished20-291Male15Ann ArborMI 15.7 m/hr
16744Stacey Farneth00:53:46.9FinishedOverall1Female1YpsilanitMI 15.5 m/hr
17762Steve Balosh00:54:00.9Finished40-496Male16 MI 15.3 m/hr
18740Michelle Loveless00:54:41.1Finished20-291Female2Ann ArborMI 15.2 m/hr
19720Nick Olexa00:54:51.4Finished20-292Male17DexterMI 15.1 m/hr
20741Anthony Adkins00:55:03.1Finished30-395Male18StockbridgeMI 15.1 m/hr
21745Greg Hodder00:55:57.6Finished40-497Male19DexterMI 14.8 m/hr
22713Kelten Kint00:56:31.5Finished40-491Female3ChelseaMI 14.9 m/hr
23733Bryan Danek00:57:07.4Finished30-396Male20DexterMI 14.5 m/hr
24757James Alford00:58:38.7Finished40-498Male21ChelseaMI 14.2 m/hr
25724Steve Puuri01:00:17.6Finished50-593Male22DexterMI 13.8 m/hr
26714Scott Kint01:00:17.9Finished40-499Male23ChelseaMI 14.0 m/hr
27747Shanna Spickard01:00:39.6Finished40-492Female4SalineMI 13.7 m/hr
28758Monique Coffman01:03:37.6Finished40-493Female5StockbridgeMI 13.0 m/hr
29764Shannon Mcelroy01:03:40.6Finished20-292Female6 MI 13.0 m/hr
30736William Jasman01:04:09.5Finished30-398Male24TecumsehMI 12.9 m/hr
31756Harry Brodbeck01:04:13.6Finished50-594Male25ChelseaMI 13.0 m/hr
32746Emily Huddleston01:04:21.4Finished20-293Female7DexterMI 12.9 m/hr
33748Joseph Tutor01:04:22.9Finished20-294Male26Ann ArborMI 12.9 m/hr
34766Chris Barretto01:04:46.4Finished30-399Male27 MI 12.8 m/hr
35760Ethan Corkin-Howell01:04:48.0Finished14-191Male28 MI 13.3 m/hr
36755Jennifer Brant01:05:08.1Finished40-494Female8ChelseaMI 12.7 m/hr
37726Cathy Savoie01:06:24.2Finished50-591Female9BrightonMI 12.6 m/hr
38712Marc Keezer01:07:10.9Finished40-4910Male29ChelseaMI 12.4 m/hr
39737Sarah Mabley01:07:13.5Finished30-391Female10Ann ArborMI 12.4 m/hr
40704Tony Barnabo01:07:22.9Finished30-397Male30Whitmore LakeMI 13.5 m/hr
41734Samantha Danek01:07:27.5Finished30-392Female11DexterMI 12.3 m/hr
42732Kelly Bauer01:07:46.8Finished30-393Female12Ann ArborMI 12.3 m/hr
43717Duane Moss01:09:53.0Finished40-4911Male31DexterMI 11.9 m/hr
44729Ted Stilber01:09:56.1Finished40-4912Male32DexterMI 11.9 m/hr
45718Mark Nelson01:10:33.7Finished40-4913Male33DexterMI 11.8 m/hr
46768Christopher Falzone01:10:34.0Finished20-293Male34 MI 13.0 m/hr
47706Zach Dickman01:11:02.0Finished20-295Male35Whitmore LakeMI 12.7 m/hr
48719Josh Norman01:12:07.4Finished30-3910Male36PinckneyMI 12.5 m/hr
49735Sarah Faix01:16:56.4Finished30-394Female13YpsilantiMI 11.0 m/hr
50703James Anderson01:18:40.2Finished20-296Male37PinckneyMI 11.4 m/hr
Page 1 of 2 (57 items)
[1]2
fb